Location: Newark
(5.5500°N, 0.2500°W)
Time: 08:22:18
(UTC+00:00)

OTV 5 (USA 277) - Pass Details

Date: 22 October 2019
Orbit: 310 x 324 km, 54.5° (Epoch: 17 October)

Event Time Altitude Azimuth Distance (km) Brightness Sun altitude
Rises 18:34:23 0° 208° (SSW) 2,031 ? -13.0°
Reaches altitude 10° 18:36:20 10° 205° (SSW) 1,205 ? -13.5°
Maximum altitude 18:38:59 63° 123° (ESE) 353 ? -14.2°
Enters shadow 18:39:54 35° 54° (NE) 533 ? -14.4°
